FW9685 Weather Reports


Display with metric or nautical units.
time (UTC)temp
F
wind
direction
speed
MPH
gust
MPH
rain 1hr
in
rain 24hr
in
rain mn
in
humidity
%
barometer
mb
20260508200053 75 88 3.0 8.0 0.00 0.00 0.00 53 1011.7
20260508194556 74 15 2.0 6.0 0.00 0.00 0.00 55 1011.9
20260508193128 73 232 4.0 8.0 0.00 0.00 0.00 56 1012.0
20260508191555 71 77 3.0 13.0 0.00 0.00 0.00 60 1012.4
20260508190052 71 0 2.0 7.0 0.00 0.00 0.00 61 1012.8
20260508184557 70 140 6.0 10.0 0.00 0.00 0.00 65 1013.0
20260508183054 69 0 3.0 10.0 0.00 0.00 0.00 67 1013.1
20260508181554 68 111 4.0 8.0 0.00 0.00 0.00 69 1013.2
20260508180105 67 253 2.0 9.0 0.00 0.00 0.00 70 1013.5
20260508174605 66 116 1.0 6.0 0.00 0.00 0.00 73 1013.6
20260508173057 65 42 1.0 6.0 0.00 0.00 0.00 75 1013.8
20260508171553 64 169 1.0 6.0 0.00 0.00 0.00 77 1014.0
20260508170054 63 194 2.0 8.0 0.00 0.00 0.00 78 1014.2
20260508164558 63 159 1.0 6.0 0.00 0.00 0.00 79 1014.4
20260508163053 62 188 3.0 8.0 0.00 0.00 0.00 80 1014.5
20260508161553 61 170 4.0 9.0 0.00 0.00 0.00 81 1014.7
20260508160051 61 171 4.0 9.0 0.00 0.00 0.00 81 1014.6
20260508154551 61 163 3.0 7.0 0.00 0.00 0.00 82 1014.7
20260508153054 61 163 4.0 9.0 0.00 0.00 0.00 81 1014.7
20260508151553 61 190 5.0 9.0 0.00 0.00 0.00 81 1014.7
20260508150056 61 167 3.0 11.0 0.00 0.00 0.00 81 1014.8
20260508144555 61 157 8.0 12.0 0.00 0.00 0.00 82 1014.7
20260508143059 61 176 6.0 12.0 0.00 0.00 0.00 82 1014.6
20260508141551 61 167 6.0 11.0 0.00 0.00 0.00 83 1014.6
20260508140107 60 155 8.0 12.0 0.00 0.00 0.00 83 1014.9
20260508134603 60 159 4.0 11.0 0.00 0.00 0.00 84 1015.0
20260508133058 60 159 6.0 13.0 0.00 0.00 0.00 84 1014.9
20260508131551 60 166 8.0 14.0 0.00 0.00 0.00 84 1014.8
20260508130053 60 151 7.0 13.0 0.00 0.00 0.00 85 1014.6
20260508124554 60 164 7.0 14.0 0.00 0.00 0.00 85 1014.4
20260508123055 60 184 5.0 10.0 0.00 0.00 0.00 85 1014.5
20260508121558 60 192 7.0 12.0 0.00 0.00 0.00 85 1014.5
20260508120052 61 188 8.0 14.0 0.00 0.00 0.00 84 1014.5
20260508114606 61 165 7.0 14.0 0.00 0.00 0.00 84 1014.0
20260508113102 61 172 9.0 15.0 0.00 0.00 0.00 83 1014.0
20260508111603 61 176 9.0 14.0 0.00 0.00 0.00 82 1014.3
20260508110054 62 146 8.0 11.0 0.00 0.00 0.00 81 1014.2
20260508104556 62 146 9.0 12.0 0.00 0.00 0.00 80 1014.5
20260508103055 62 136 5.0 10.0 0.00 0.00 0.00 79 1014.4
20260508101554 62 139 6.0 10.0 0.00 0.00 0.00 79 1014.2
20260508100054 61 132 5.0 10.0 0.00 0.00 0.00 78 1014.2
20260508094559 61 134 5.0 11.0 0.00 0.00 0.00 78 1014.3
20260508093100 61 132 6.0 12.0 0.00 0.00 0.00 78 1014.1
20260508091608 61 144 7.0 10.0 0.00 0.00 0.00 78 1014.4
20260508090057 61 134 6.0 8.0 0.00 0.00 0.00 78 1014.5
20260508084551 61 140 2.0 5.0 0.00 0.00 0.00 78 1014.6
20260508083102 61 155 3.0 5.0 0.00 0.00 0.00 78 1014.6
20260508081601 60 160 3.0 7.0 0.00 0.00 0.00 78 1014.7
20260508080055 60 173 4.0 7.0 0.00 0.00 0.00 79 1014.9
20260508074555 60 167 3.0 7.0 0.00 0.00 0.00 79 1015.0
20260508073055 60 172 5.0 8.0 0.00 0.00 0.00 79 1015.2
20260508071557 60 165 3.0 8.0 0.00 0.00 0.00 79 1015.3
20260508070100 59 180 3.0 8.0 0.00 0.00 0.00 79 1015.6
20260508064555 59 163 4.0 6.0 0.00 0.00 0.00 79 1015.8
20260508063104 59 175 1.0 3.0 0.00 0.00 0.00 78 1015.8
20260508061604 59 174 2.0 8.0 0.00 0.00 0.00 78 1015.7
20260508060056 59 184 3.0 9.0 0.00 0.00 0.00 77 1015.8
20260508054559 59 167 6.0 14.0 0.00 0.00 0.00 76 1015.8
20260508053104 59 151 6.0 11.0 0.00 0.00 0.00 73 1015.8
20260508051604 59 161 8.0 16.0 0.00 0.00 0.00 73 1015.6
20260508050057 60 154 11.0 17.0 0.00 0.00 0.00 72 1015.4
20260508044552 60 163 12.0 16.0 0.00 0.00 0.00 71 1015.6
20260508043054 60 135 9.0 17.0 0.00 0.00 0.00 68 1016.1
20260508041553 60 164 10.0 20.0 0.00 0.00 0.00 66 1016.0
20260508040052 61 150 14.0 20.0 0.00 0.00 0.00 64 1015.9
20260508034553 61 140 13.0 19.0 0.00 0.00 0.00 61 1015.7
20260508033056 62 155 11.0 19.0 0.00 0.00 0.00 58 1015.9
20260508031552 63 140 11.0 15.0 0.00 0.00 0.00 53 1016.0
20260508030051 64 138 11.0 14.0 0.00 0.00 0.00 50 1016.1
20260508024600 64 143 10.0 14.0 0.00 0.00 0.00 49 1016.3
20260508023055 65 144 11.0 14.0 0.00 0.00 0.00 47 1016.2
20260508021552 66 136 10.0 16.0 0.00 0.00 0.00 46 1015.7
20260508020053 66 144 11.0 20.0 0.00 0.00 0.00 46 1015.7
20260508014555 66 140 15.0 19.0 0.00 0.00 0.00 45 1015.5
20260508013052 67 147 14.0 21.0 0.00 0.00 0.00 44 1015.3
20260508011605 68 152 14.0 21.0 0.00 0.00 0.00 45 1015.0
20260508010056 69 141 15.0 20.0 0.00 0.00 0.00 44 1015.2
20260508004558 70 148 12.0 19.0 0.00 0.00 0.00 43 1015.0
20260508003053 70 142 13.0 20.0 0.00 0.00 0.00 43 1015.2
20260508001555 71 139 14.0 21.0 0.00 0.00 0.00 42 1015.0
20260508000058 72 134 11.0 17.0 0.00 0.00 0.00 41 1015.2
20260507234555 72 122 12.0 18.0 0.00 0.00 0.00 40 1015.2
20260507233054 73 192 8.0 15.0 0.00 0.00 0.00 39 1015.3
20260507231558 73 110 12.0 20.0 0.00 0.00 0.00 40 1015.4
20260507230054 73 144 11.0 18.0 0.00 0.00 0.00 39 1015.4
20260507224556 74 148 12.0 19.0 0.00 0.00 0.00 38 1015.4
20260507223056 74 164 12.0 18.0 0.00 0.00 0.00 37 1015.6
20260507221551 75 138 9.0 19.0 0.00 0.00 0.00 36 1015.8
20260507220054 75 113 9.0 15.0 0.00 0.00 0.00 37 1015.9
20260507214555 73 69 6.0 17.0 0.00 0.00 0.00 39 1016.2
20260507213054 74 136 7.0 14.0 0.00 0.00 0.00 38 1016.5
20260507211554 72 108 8.0 14.0 0.00 0.00 0.00 39 1016.6
20260507210056 72 111 5.0 14.0 0.00 0.00 0.00 40 1016.8
20260507204553 71 94 3.0 14.0 0.00 0.00 0.00 40 1017.0
20260507203057 70 84 6.0 14.0 0.00 0.00 0.00 41 1017.1
20260507201609 70 118 7.0 14.0 0.00 0.00 0.00 41 1017.5